Weather History for KLKR - February, 2014

Change the Weather History Date:

Friday, February 14, 2014

  Actual Average (KUZA) Record (KUZA)
Temperature  
Mean Temperature 40 °F -  
Max Temperature 53 °F 55 °F 77 °F (1949)
Min Temperature 28 °F 33 °F 13 °F (1971)
Degree Days  
Heating Degree Days 24    
Moisture  
Dew Point 31 °F    
Average Humidity 73    
Maximum Humidity 100    
Minimum Humidity 38    
Precipitation  
Precipitation 0.01 in - - ()
Sea Level Pressure  
Sea Level Pressure 29.80 in    
Wind  
Wind Speed 2 mph (SW)    
Max Wind Speed 10 mph    
Max Gust Speed 16 mph    
Visibility 10 miles    
Events Thunderstorm    
Averages and records for this station are not official NWS values.
T = Trace of Precipitation, MM = Missing Value Source: NWS Daily Summary

Daily Weather History Graph

Daily Weather History Graph

Search for Another Location

Airport or City:

Trip Planner

Search our weather history database for the weather conditions in past years. The results will help you decide how hot, cold, wet, or windy it might be!

Date:

Astronomy

Feb. 14, 2014 Rise Set
Actual Time 7:10 AM EST 6:05 PM EST
Civil Twilight 6:44 AM EST 6:31 PM EST
Nautical Twilight 6:14 AM EST 7:01 PM EST
Astronomical Twilight 5:45 AM EST 7:30 PM EST
Moon 6:05 PM EST (2/14) 6:37 AM EST (2/14)
Length of Visible Light 11h 47m
Length of Day
10h 55m
Full, 100% of the Moon is Illuminated
Feb 14
Full
Feb 14
Full
Feb 22
Last Quarter
Mar 1
New
Mar 8
First Quarter

Hourly Weather History & Observations

Time (EST) Temp. Windchill Dew Point Humidity Pressure Visibility Wind Dir Wind Speed Gust Speed Precip Events Conditions
12:15 AM 30.2 °F - 30.2 °F 100% 29.76 in 10.0 mi Calm Calm - 0.01 in   Clear
12:35 AM 30.2 °F - 30.2 °F 100% 29.76 in 10.0 mi Calm Calm - 0.01 in Thunderstorm Clear
12:55 AM 30.2 °F - 30.2 °F 100% 29.76 in 10.0 mi Calm Calm - 0.01 in   Clear
1:15 AM 30.2 °F - 30.2 °F 100% 29.76 in 10.0 mi Calm Calm - N/A   Clear
1:35 AM 30.2 °F - 30.2 °F 100% 29.77 in 10.0 mi Calm Calm - N/A   Clear
1:55 AM 32.0 °F 28.7 °F 32.0 °F 100% 29.78 in 10.0 mi SW 3.5 mph - N/A   Clear
2:15 AM 32.0 °F - 32.0 °F 100% 29.78 in 10.0 mi Calm Calm - N/A   Clear
2:35 AM 32.0 °F 27.5 °F 32.0 °F 100% 29.78 in 10.0 mi SW 4.6 mph - N/A   Clear
2:55 AM 32.0 °F 26.4 °F 32.0 °F 100% 29.79 in 10.0 mi SW 5.8 mph - N/A   Clear
3:15 AM 32.0 °F 28.7 °F 32.0 °F 100% 29.79 in 10.0 mi SW 3.5 mph - N/A   Clear
3:35 AM 33.8 °F 30.8 °F 28.4 °F 81% 29.79 in 10.0 mi SW 3.5 mph - N/A   Clear
3:55 AM 32.0 °F - 30.2 °F 93% 29.80 in 10.0 mi Calm Calm - N/A   Clear
4:15 AM 32.0 °F - 30.2 °F 93% 29.81 in 10.0 mi Calm Calm - N/A   Clear
4:35 AM 32.0 °F - 30.2 °F 93% 29.81 in 10.0 mi Calm Calm - N/A   Clear
4:55 AM 32.0 °F - 30.2 °F 93% 29.81 in 10.0 mi Calm Calm - N/A   Clear
5:15 AM 32.0 °F - 30.2 °F 93% 29.81 in 10.0 mi Calm Calm - N/A   Clear
5:35 AM 30.2 °F - 30.2 °F 100% 29.82 in 10.0 mi Calm Calm - N/A   Clear
5:55 AM 30.2 °F 26.7 °F 30.2 °F 100% 29.81 in 10.0 mi SW 3.5 mph - N/A   Clear
6:15 AM 30.2 °F 25.4 °F 28.4 °F 93% 29.83 in 10.0 mi SW 4.6 mph - N/A   Clear
6:35 AM 32.0 °F 27.5 °F 28.4 °F 87% 29.83 in 10.0 mi SW 4.6 mph - N/A   Clear
6:55 AM 30.2 °F - 28.4 °F 93% 29.83 in 10.0 mi Calm Calm - N/A   Clear
7:15 AM 30.2 °F - 28.4 °F 93% 29.84 in 10.0 mi Calm Calm - N/A   Clear
7:35 AM 28.4 °F - 28.4 °F 100% 29.84 in 10.0 mi Calm Calm - N/A   Clear
7:55 AM 28.4 °F 24.6 °F 28.4 °F 100% 29.85 in 10.0 mi WSW 3.5 mph - N/A   Clear
8:15 AM 32.0 °F 26.4 °F 28.4 °F 87% 29.85 in 10.0 mi WSW 5.8 mph - N/A   Clear
8:35 AM 32.0 °F 25.6 °F 28.4 °F 87% 29.85 in 10.0 mi WSW 6.9 mph - N/A   Clear
8:55 AM 35.6 °F 28.6 °F 28.4 °F 75% 29.86 in 10.0 mi WSW 9.2 mph - N/A   Clear
9:15 AM 37.4 °F 30.8 °F 30.2 °F 75% 29.86 in 10.0 mi WSW 9.2 mph - N/A   Clear
9:35 AM 39.2 °F 33.6 °F 30.2 °F 70% 29.86 in 10.0 mi WSW 8.1 mph - N/A   Clear
9:55 AM 39.2 °F 35.0 °F 30.2 °F 70% 29.86 in 10.0 mi WSW 5.8 mph - N/A   Clear
10:15 AM 41.0 °F 37.1 °F 30.2 °F 65% 29.85 in 10.0 mi WSW 5.8 mph - N/A   Clear
10:35 AM 42.8 °F 40.1 °F 28.4 °F 57% 29.85 in 10.0 mi SW 4.6 mph - N/A   Clear
10:55 AM 44.6 °F 43.1 °F 30.2 °F 57% 29.84 in 10.0 mi South 3.5 mph - N/A   Clear
11:15 AM 46.4 °F 44.3 °F 30.2 °F 53% 29.84 in 10.0 mi SW 4.6 mph - N/A   Clear
11:35 AM 46.4 °F 44.3 °F 28.4 °F 50% 29.83 in 10.0 mi SW 4.6 mph - N/A   Clear
11:55 AM 48.2 °F - 28.4 °F 46% 29.83 in 10.0 mi SW 6.9 mph - N/A   Clear
12:15 PM 48.2 °F - 28.4 °F 46% 29.83 in 10.0 mi SW 6.9 mph - N/A   Clear
12:35 PM 50.0 °F - 28.4 °F 43% 29.83 in 10.0 mi SW 9.2 mph - N/A   Clear
12:55 PM 50.0 °F - 28.4 °F 43% 29.83 in 10.0 mi SW 4.6 mph - N/A   Clear
1:15 PM 51.8 °F - 28.4 °F 41% 29.83 in 10.0 mi SW 5.8 mph - N/A   Clear
1:35 PM 51.8 °F - 28.4 °F 41% 29.82 in 10.0 mi SW 6.9 mph - N/A   Clear
1:55 PM 53.6 °F - 28.4 °F 38% 29.83 in 10.0 mi WSW 10.4 mph 16.1 mph N/A   Clear
2:15 PM 53.6 °F - 28.4 °F 38% 29.82 in 10.0 mi SW 6.9 mph - N/A   Clear
2:35 PM 53.6 °F - 28.4 °F 38% 29.83 in 10.0 mi SW 6.9 mph - N/A   Clear
2:55 PM 51.8 °F - 32.0 °F 47% 29.82 in 10.0 mi SW 6.9 mph - N/A   Clear
3:15 PM 53.6 °F - 30.2 °F 41% 29.81 in 10.0 mi South 3.5 mph - N/A   Clear
3:35 PM 51.8 °F - 30.2 °F 44% 29.80 in 10.0 mi SSW 5.8 mph - N/A   Clear
3:55 PM 51.8 °F - 30.2 °F 44% 29.79 in 10.0 mi Calm Calm - N/A   Clear
4:15 PM 51.8 °F - 32.0 °F 47% 29.78 in 10.0 mi SSW 4.6 mph - N/A   Clear
4:35 PM 51.8 °F - 32.0 °F 47% 29.79 in 10.0 mi Calm Calm - N/A   Clear
4:55 PM 50.0 °F - 32.0 °F 50% 29.79 in 10.0 mi SW 4.6 mph - N/A   Clear
5:15 PM 50.0 °F - 32.0 °F 50% 29.79 in 10.0 mi SW 3.5 mph - N/A   Clear
5:35 PM 48.2 °F - 32.0 °F 54% 29.79 in 10.0 mi Calm Calm - N/A   Clear
5:55 PM 48.2 °F - 30.2 °F 50% 29.79 in 10.0 mi SSW 4.6 mph - N/A   Clear
6:15 PM 48.2 °F - 30.2 °F 50% 29.80 in 10.0 mi SSW 4.6 mph - N/A   Clear
6:35 PM 46.4 °F - 30.2 °F 53% 29.79 in 10.0 mi Calm Calm - N/A   Clear
6:55 PM 44.6 °F - 32.0 °F 61% 29.79 in 10.0 mi Calm Calm - N/A   Clear
7:15 PM 41.0 °F - 32.0 °F 70% 29.79 in 10.0 mi Calm Calm - N/A   Clear
7:35 PM 42.8 °F - 32.0 °F 66% 29.79 in 10.0 mi Calm Calm - N/A   Clear
7:55 PM 42.8 °F - 32.0 °F 66% 29.77 in 10.0 mi Calm Calm - N/A   Clear
8:15 PM 41.0 °F - 32.0 °F 70% 29.76 in 10.0 mi Calm Calm - N/A   Clear
8:35 PM 42.8 °F - 32.0 °F 66% 29.77 in 10.0 mi Calm Calm - N/A   Clear
8:55 PM 41.0 °F - 32.0 °F 70% 29.77 in 10.0 mi Calm Calm - N/A   Clear
9:15 PM 42.8 °F - 32.0 °F 66% 29.77 in 10.0 mi Calm Calm - N/A   Clear
9:35 PM 39.2 °F - 32.0 °F 75% 29.76 in 10.0 mi Calm Calm - N/A   Clear
9:55 PM 37.4 °F - 32.0 °F 81% 29.75 in 10.0 mi Calm Calm - N/A   Clear
10:15 PM 41.0 °F - 32.0 °F 70% 29.76 in 10.0 mi Calm Calm - N/A   Clear
10:35 PM 37.4 °F - 33.8 °F 87% 29.76 in 10.0 mi Calm Calm - N/A   Clear
10:55 PM 35.6 °F - 33.8 °F 93% 29.74 in 10.0 mi Calm Calm - N/A   Mostly Cloudy
11:15 PM 37.4 °F - 33.8 °F 87% 29.74 in 10.0 mi Calm Calm - N/A   Scattered Clouds
11:35 PM 35.6 °F - 33.8 °F 93% 29.71 in 10.0 mi Calm Calm - N/A   Clear
11:55 PM 35.6 °F - 35.6 °F 100% 29.70 in 10.0 mi Calm Calm - N/A   Clear